Location: *
(50.3440°N, 18.6237°E)
Time: 17:05:47
(UTC+00:00)

Cosmos 1934 Rocket - Pass Details

Date: 30 November 2020
Orbit: 937 x 1000 km, 83.0° (Epoch: 22 January)

Event Time Altitude Azimuth Distance (km) Brightness Sun altitude
Rises 16:49:05 0° 353° (N) 3,737 7.0 -18.9°
Reaches altitude 10° 16:51:47 10° 0° (N) 2,782 6.3 -19.3°
Maximum altitude 16:57:51 43° 71° (ENE) 1,371 4.3 -20.3°
Enters shadow 17:03:07 13° 140° (SE) 2,507 5.9 -21.1°
Exits shadow 17:04:41 - 145° (SE) 3,045 6.3 -21.3°
Sets 17:06:27 0° 149° (SSE) 3,677 6.8 -21.6°
